Location: Utrecht
(52.0907°N, 5.1214°E)
Time: 06:40:55
(UTC+02:00)

SPROUT - Pass Details

Date: 02 July 2022
Orbit: 588 x 598 km, 97.9° (Epoch: 18 August)

Event Time Altitude Azimuth Distance (km) Brightness Sun altitude
Exits shadow 02:28:48 23° 178° (S) 1,253 ? -14.2°
Maximum altitude 02:31:16 68° 257° (WSW) 638 ? -14.1°
Drops below altitude 10° 02:35:26 10° 341° (NNW) 1,931 ? -14.0°
Sets 02:37:38 0° 344° (NNW) 2,838 ? -13.9°
